Location: Anjeux
(47.8815°N, 6.2076°E)
Time: 21:19:12
(UTC+00:00)

X-37B - Pass Details

Date: 25 September 2021
Orbit: 385 x 389 km, 45.0° (Epoch: 17 October)

Event Time Altitude Azimuth Distance (km) Brightness Sun altitude
Exits shadow 03:40:57 28° 173° (S) 758 1.9 -18.1°
Maximum altitude 03:41:16 29° 161° (SSE) 745 2.0 -18.1°
Drops below altitude 10° 03:44:05 10° 99° (E) 1,415 4.4 -17.6°
Sets 03:46:18 0° 87° (E) 2,272 5.9 -17.3°
